Jersey, United Kingdom

8:02 AM BST on April 27, 2018 (GMT +0100)
Jersey

Weather History for EGJJ - December, 2011

Change the Weather History Date:

Saturday, December 17, 2011

  Actual Average Record
Temperature  
Mean Temperature 44 °F -  
Max Temperature 47 °F 45 °F 55 °F (2015)
Min Temperature 42 °F 39 °F 30 °F (2007)
Degree Days  
Heating Degree Days 20    
Moisture  
Dew Point 35 °F    
Average Humidity 67    
Maximum Humidity 81    
Minimum Humidity 52    
Precipitation  
Precipitation 0.00 in - - ()
Sea Level Pressure  
Sea Level Pressure 29.91 in    
Wind  
Wind Speed 17 mph ()    
Max Wind Speed 28 mph    
Max Gust Speed 32 mph    
Visibility 6.2 miles    
Events Rain    
Averages and records for this station are not official NWS values.
T = Trace of Precipitation, MM = Missing Value Source: Averaged Metar Reports

Daily Weather History Graph

Daily Weather History Graph

Search for Another Location

Airport or City:

Astronomy

Dec. 17, 2011 Rise Set
Actual Time 7:58 AM GMT 4:11 PM GMT
Civil Twilight 7:20 AM GMT 4:48 PM GMT
Nautical Twilight 6:39 AM GMT 5:29 PM GMT
Astronomical Twilight 6:01 AM GMT 6:08 PM GMT
Moon No Moon Rise 11:32 AM GMT (12/17)
Length of Visible Light 9h 27m
Length of Day
8h 12m
Waning Gibbous, 56% of the Moon is Illuminated
Dec 17
Waning Gibbous
Dec 18
Last Quarter
Dec 24
New
Jan 1
First Quarter
Jan 9
Full

Hourly Weather History & Observations

Time (GMT) Temp. Windchill Dew Point Humidity Pressure Visibility Wind Dir Wind Speed Gust Speed Precip Events Conditions
12:00 AM 45 °F - 37 °F 65% 29.68 in 25 mi NW 24.2 mph - -   Partly Cloudy
3:00 AM 45 °F - 35 °F 58% 29.79 in 25 mi NNW 20.7 mph - -   Partly Cloudy
3:50 AM 44.6 °F 38.4 °F 35.6 °F 71% 29.80 in 6.2 mi NNW 12.7 mph - N/A   Scattered Clouds
4:20 AM 44.6 °F 37.4 °F 35.6 °F 71% 29.80 in 6.2 mi NNW 16.1 mph - N/A   Partly Cloudy
4:50 AM 44.6 °F 37.4 °F 35.6 °F 71% 29.83 in 6.2 mi NNW 16.1 mph - N/A   Partly Cloudy
5:20 AM 44.6 °F 38.8 °F 35.6 °F 71% 29.83 in 6.2 mi NNW 11.5 mph - N/A   Partly Cloudy
5:50 AM 44.6 °F 39.7 °F 33.8 °F 66% 29.86 in 6.2 mi NNW 9.2 mph - N/A Rain Light Rain Showers
6:00 AM 44 °F - 34 °F 58% 29.86 in 25 mi NNW 12.7 mph - - Rain Light Rain Showers
6:20 AM 44.6 °F 37.4 °F 35.6 °F 71% 29.86 in 6.2 mi NW 16.1 mph - N/A   Scattered Clouds
6:50 AM 44.6 °F 36.9 °F 35.6 °F 71% 29.86 in 6.2 mi NW 18.4 mph - N/A   Scattered Clouds
7:20 AM 44.6 °F 36.9 °F 35.6 °F 71% 29.86 in 6.2 mi NW 18.4 mph - N/A   Scattered Clouds
7:50 AM 44.6 °F 36.9 °F 33.8 °F 66% 29.89 in 6.2 mi WNW 18.4 mph - N/A   Scattered Clouds
8:20 AM 42.8 °F 38.0 °F 35.6 °F 76% 29.92 in 6.2 mi NNW 8.1 mph 26.5 mph N/A Rain Light Rain Showers
8:50 AM 42.8 °F 35.1 °F 37.4 °F 81% 29.89 in 6.2 mi WNW 16.1 mph - N/A   Scattered Clouds
9:00 AM 42 °F - 37 °F 75% 29.92 in 22 mi WNW 12.7 mph - - Rain Light Rain Showers
9:20 AM 42.8 °F 35.4 °F 37.4 °F 81% 29.92 in 6.2 mi NNW 15.0 mph - N/A   Mostly Cloudy
9:50 AM 44.6 °F 37.2 °F 35.6 °F 71% 29.92 in 6.2 mi WNW 17.3 mph - N/A   Mostly Cloudy
10:20 AM 44.6 °F 36.9 °F 37.4 °F 76% 29.92 in 6.2 mi NW 18.4 mph - N/A   Scattered Clouds
10:50 AM 44.6 °F 37.4 °F 35.6 °F 71% 29.92 in 6.2 mi NNW 16.1 mph - N/A   Partly Cloudy
11:20 AM 44.6 °F 36.4 °F 35.6 °F 71% 29.92 in 6.2 mi NW 20.7 mph - N/A   Scattered Clouds
11:50 AM 44.6 °F 37.4 °F 35.6 °F 71% 29.92 in 6.2 mi NNW 16.1 mph - N/A   Partly Cloudy
12:00 PM 45 °F - 36 °F 62% 29.94 in 25 mi NW 16.1 mph - -   Partly Cloudy
12:20 PM 46.4 °F 39.5 °F 37.4 °F 71% 29.92 in 6.2 mi NNW 17.3 mph - N/A   Scattered Clouds
12:50 PM 46.4 °F 38.1 °F 35.6 °F 66% 29.92 in 6.2 mi NW 24.2 mph - N/A   Scattered Clouds
1:20 PM 46.4 °F 38.5 °F 33.8 °F 62% 29.92 in 6.2 mi NW 21.9 mph - N/A   Partly Cloudy
1:50 PM 46.4 °F 38.7 °F 33.8 °F 62% 29.92 in 6.2 mi NNW 20.7 mph - N/A   Scattered Clouds
2:20 PM 44.6 °F 36.9 °F 35.6 °F 71% 29.92 in 6.2 mi NNW 18.4 mph - N/A   Scattered Clouds
2:50 PM 44.6 °F 36.1 °F 33.8 °F 66% 29.92 in 6.2 mi NW 21.9 mph - N/A   Scattered Clouds
3:00 PM 46 °F - 34 °F 52% 29.94 in 22 mi NW 20.7 mph - - Rain Light Rain Showers
3:20 PM 44.6 °F 35.1 °F 33.8 °F 66% 29.92 in 6.2 mi NW 27.6 mph - N/A   Scattered Clouds
3:50 PM 44.6 °F 36.9 °F 33.8 °F 66% 29.92 in 6.2 mi NW 18.4 mph 32.2 mph N/A   Scattered Clouds
4:20 PM 44.6 °F 37.4 °F 35.6 °F 71% 29.95 in 6.2 mi NNW 16.1 mph 32.2 mph N/A   Mostly Cloudy
4:50 PM 44.6 °F 37.2 °F 35.6 °F 71% 29.95 in 6.2 mi NW 17.3 mph - N/A   Scattered Clouds
5:20 PM 44.6 °F 36.1 °F 33.8 °F 66% 29.95 in 6.2 mi NNW 21.9 mph - N/A   Partly Cloudy
5:50 PM 44.6 °F 35.3 °F 33.8 °F 66% 29.95 in 6.2 mi NW 26.5 mph - N/A   Scattered Clouds
6:00 PM 44 °F - 33 °F 56% 29.96 in 25 mi NW 24.2 mph - - Rain Light Rain Showers
6:20 PM 44.6 °F 35.3 °F 32.0 °F 61% 29.95 in 6.2 mi NW 26.5 mph - N/A   Scattered Clouds
6:50 PM 44.6 °F 35.1 °F 32.0 °F 61% 29.95 in 6.2 mi NW 27.6 mph - N/A   Partly Cloudy
7:20 PM 44.6 °F 35.9 °F 32.0 °F 61% 29.98 in 6.2 mi NW 23.0 mph - N/A   Mostly Cloudy
7:50 PM 44.6 °F 35.7 °F 33.8 °F 66% 29.98 in 6.2 mi NNW 24.2 mph - N/A   Scattered Clouds
8:20 PM 44.6 °F 35.9 °F 32.0 °F 61% 29.98 in 6.2 mi NNW 23.0 mph - N/A   Partly Cloudy
8:50 PM 44.6 °F 35.9 °F 33.8 °F 66% 29.98 in 6.2 mi NNW 23.0 mph - N/A   Scattered Clouds
9:00 PM 44 °F - 34 °F 57% 30.00 in 28 mi NW 23.0 mph - -   Partly Cloudy